GW4049 Weather Reports


time (UTC)temp
C
wind
direction
speed
KPH
gust
KPH
rain 1hr
cm
rain 24hr
cm
rain mn
cm
humidity
%
barometer
mb
20260903011652 12 250 0.0 1.6 0.00 0.03 0.03 68 1029.9
20260903011146 12 222 3.2 4.8 0.00 0.03 0.03 68 1030.0
20260903010642 12 208 4.8 4.8 0.00 0.03 0.03 71 1029.9
20260903010141 12 212 4.8 4.8 0.00 0.03 0.03 74 1030.2
20260903005640 13 224 3.2 3.2 0.00 0.03 0.03 74 1030.2
20260903005136 13 229 3.2 4.8 0.00 0.03 0.03 74 1030.3
20260903004631 13 218 3.2 4.8 0.00 0.03 0.03 72 1030.2
20260903004126 13 234 3.2 4.8 0.00 0.03 0.03 68 1030.3
20260903003621 13 230 3.2 3.2 0.00 0.03 0.03 74 1030.0
20260903003116 13 228 1.6 3.2 0.00 0.03 0.03 71 1030.0
20260903002612 13 268 3.2 4.8 0.00 0.03 0.03 66 1030.0
20260903002106 13 234 1.6 6.4 0.00 0.03 0.03 67 1029.9
20260903001601 12 266 3.2 6.4 0.00 0.03 0.03 67 1029.9
20260903001100 13 236 4.8 4.8 0.00 0.03 0.03 76 1030.0
20260903000556 12 219 3.2 4.8 0.00 0.03 0.03 80 1030.0
20260903000049 12 248 1.6 3.2 0.00 0.03 0.03 80 1029.9
20260902235543 12 254 6.4 9.7 0.18 0.03 0.03 76 1029.9
20260902235038 13 245 3.2 4.8 0.18 0.03 0.03 79 1030.3
20260902234538 16 266 6.4 9.7 0.00 0.00 0.00 62 1030.3
20260902234036 16 271 3.2 3.2 0.00 0.00 0.00 50 1030.0
20260902233531 17 47 3.2 9.7 0.00 0.00 0.00 47 1029.9
20260902233026 17 299 6.4 16.1 0.00 0.00 0.00 46 1030.0
20260902232525 18 294 1.6 4.8 0.00 0.00 0.00 44 1029.9
20260902232014 18 267 1.6 3.2 0.00 0.00 0.00 43 1030.0
20260902231509 19 322 1.6 3.2 0.00 0.00 0.00 41 1030.0
20260902231003 20 258 1.6 1.6 0.00 0.00 0.00 39 1030.3
20260902230503 20 221 1.6 3.2 0.00 0.00 0.00 39 1030.2
20260902225956 18 251 1.6 1.6 0.00 0.00 0.00 41 1030.3
20260902225451 18 262 0.0 0.0 0.00 0.00 0.00 41 1030.6
20260902224951 18 268 0.0 3.2 0.00 0.00 0.00 41 1030.6
20260902224445 18 263 3.2 6.4 0.00 0.00 0.00 43 1030.4
20260902223942 18 18 1.6 4.8 0.00 0.00 0.00 43 1030.4
20260902223437 18 295 3.2 6.4 0.00 0.00 0.00 44 1030.6
20260902222936 18 348 4.8 4.8 0.00 0.00 0.00 42 1030.4
20260902222434 18 287 0.0 3.2 0.00 0.00 0.00 42 1030.3
20260902221929 18 268 0.0 1.6 0.00 0.00 0.00 43 1030.3
20260902221427 18 253 0.0 0.0 0.00 0.00 0.00 44 1030.3
20260902220923 18 242 3.2 6.4 0.00 0.00 0.00 42 1030.2
20260902220417 18 261 0.0 3.2 0.00 0.00 0.00 42 1030.2
20260902215912 18 264 0.0 4.8 0.00 0.00 0.00 43 1030.2
20260902215408 18 247 0.0 1.6 0.00 0.00 0.00 44 1030.0
20260902214904 18 359 4.8 4.8 0.00 0.00 0.00 46 1030.0
20260902214402 18 29 4.8 6.4 0.00 0.00 0.00 43 1030.3
20260902213857 19 254 3.2 6.4 0.00 0.00 0.00 42 1030.6
20260902213354 18 238 3.2 4.8 0.00 0.00 0.00 43 1030.3
20260902212852 18 190 6.4 6.4 0.00 0.00 0.00 43 1030.3
20260902212349 18 286 1.6 4.8 0.00 0.00 0.00 41 1030.2
20260902211845 18 261 0.0 6.4 0.00 0.00 0.00 42 1030.3
20260902211340 18 272 0.0 1.6 0.00 0.00 0.00 43 1030.6
20260902210835 18 256 0.0 0.0 0.00 0.00 0.00 45 1030.4
20260902210334 18 245 0.0 1.6 0.00 0.00 0.00 44 1030.6
20260902205833 18 238 0.0 0.0 0.00 0.00 0.00 46 1030.6
20260902205327 18 251 0.0 4.8 0.00 0.00 0.00 47 1030.6
20260902204823 18 67 6.4 12.9 0.00 0.00 0.00 43 1030.6
20260902204318 18 234 0.0 6.4 0.00 0.00 0.00 52 1031.0
20260902203814 18 87 3.2 4.8 0.00 0.00 0.00 40 1031.0
20260902203309 18 260 3.2 6.4 0.00 0.00 0.00 41 1031.0
20260902202808 18 232 3.2 4.8 0.00 0.00 0.00 40 1031.2
20260902202306 18 319 1.6 4.8 0.00 0.00 0.00 41 1031.2
20260902201801 19 220 3.2 6.4 0.00 0.00 0.00 40 1031.2
20260902201300 18 197 3.2 4.8 0.00 0.00 0.00 40 1031.2
20260902200756 18 130 1.6 3.2 0.00 0.00 0.00 41 1031.4
20260902200251 18 283 3.2 11.3 0.00 0.00 0.00 41 1031.0
20260902195746 20 260 1.6 4.8 0.00 0.00 0.00 40 1031.2
20260902195245 20 233 3.2 9.7 0.00 0.00 0.00 37 1031.4
20260902194740 20 162 4.8 4.8 0.00 0.00 0.00 38 1031.5
20260902194235 20 175 6.4 9.7 0.00 0.00 0.00 38 1031.4
20260902193731 18 156 8.0 17.7 0.00 0.00 0.00 39 1031.4
20260902193226 18 128 8.0 12.9 0.00 0.00 0.00 41 1031.4
20260902192724 19 154 4.8 6.4 0.00 0.00 0.00 39 1031.6
20260902192218 20 217 3.2 12.9 0.00 0.00 0.00 37 1031.2
20260902191712 19 72 6.4 9.7 0.00 0.00 0.00 40 1031.5
20260902191207 19 262 1.6 4.8 0.00 0.00 0.00 39 1031.5
20260902190702 18 277 0.0 11.3 0.00 0.00 0.00 40 1031.5
20260902190157 18 314 8.0 12.9 0.00 0.00 0.00 40 1031.9
20260902185653 19 18 6.4 14.5 0.00 0.00 0.00 38 1031.8
20260902185149 19 278 4.8 9.7 0.00 0.00 0.00 37 1031.9
20260902184649 20 196 3.2 11.3 0.00 0.00 0.00 38 1032.0
20260902184145 20 92 9.7 12.9 0.00 0.00 0.00 37 1031.8
20260902183640 20 8 1.6 14.5 0.00 0.00 0.00 38 1032.0
20260902183137 20 311 4.8 9.7 0.00 0.00 0.00 35 1031.8
20260902182632 20 58 8.0 12.9 0.00 0.00 0.00 37 1032.0
20260902182129 20 130 4.8 11.3 0.00 0.00 0.00 36 1032.1
20260902181625 21 92 11.3 14.5 0.00 0.00 0.00 34 1032.3
20260902181124 20 218 1.6 16.1 0.00 0.00 0.00 38 1032.1
20260902180618 20 130 6.4 6.4 0.00 0.00 0.00 36 1032.3
20260902180115 19 136 9.7 16.1 0.00 0.00 0.00 37 1032.4
20260902175614 20 3 11.3 14.5 0.00 0.00 0.00 35 1032.7
20260902175110 19 10 9.7 12.9 0.00 0.00 0.00 37 1032.7
20260902174606 20 286 3.2 11.3 0.00 0.00 0.00 36 1032.8
20260902174101 18 359 4.8 11.3 0.00 0.00 0.00 39 1032.8
20260902173555 19 57 9.7 14.5 0.00 0.00 0.00 37 1032.7
20260902173051 19 124 1.6 11.3 0.00 0.00 0.00 37 1032.5
20260902172544 20 271 0.0 11.3 0.00 0.00 0.00 38 1032.8
20260902172039 19 358 8.0 11.3 0.00 0.00 0.00 37 1032.7
20260902171535 18 158 4.8 12.9 0.00 0.00 0.00 38 1032.8
20260902171031 18 144 11.3 20.9 0.00 0.00 0.00 40 1032.9
20260902170526 18 49 3.2 17.7 0.00 0.00 0.00 40 1032.7
20260902170022 18 156 8.0 14.5 0.00 0.00 0.00 40 1032.7
20260902165516 18 83 9.7 14.5 0.00 0.00 0.00 39 1032.8
20260902165015 20 231 1.6 4.8 0.00 0.00 0.00 39 1032.7
20260902164511 18 21 6.4 6.4 0.00 0.00 0.00 38 1032.9
20260902164009 18 74 6.4 11.3 0.00 0.00 0.00 37 1032.7
20260902163506 18 26 12.9 16.1 0.00 0.00 0.00 38 1032.8
20260902163003 18 70 6.4 17.7 0.00 0.00 0.00 41 1032.8
20260902162458 19 253 1.6 3.2 0.00 0.00 0.00 39 1032.9
20260902161958 18 220 0.0 6.4 0.00 0.00 0.00 40 1032.9
20260902161448 18 182 6.4 9.7 0.00 0.00 0.00 40 1032.8
20260902160944 17 127 4.8 11.3 0.00 0.00 0.00 43 1032.8
20260902160439 17 231 3.2 9.7 0.00 0.00 0.00 45 1032.9
20260902155936 17 358 4.8 12.9 0.00 0.00 0.00 45 1032.8
20260902155433 17 194 0.0 6.4 0.00 0.00 0.00 44 1032.8
20260902154926 17 52 1.6 9.7 0.00 0.00 0.00 44 1032.9
20260902154422 17 333 4.8 14.5 0.00 0.00 0.00 45 1032.7
20260902153922 17 124 9.7 14.5 0.00 0.00 0.00 42 1032.8
20260902153420 17 248 3.2 6.4 0.00 0.00 0.00 44 1032.5
20260902152916 17 54 4.8 11.3 0.00 0.00 0.00 44 1032.7
20260902152412 17 300 1.6 6.4 0.00 0.00 0.00 45 1032.3
20260902151907 17 223 1.6 6.4 0.00 0.00 0.00 44 1032.5
20260902151402 17 59 4.8 4.8 0.00 0.00 0.00 43 1032.4
20260902150857 17 264 0.0 4.8 0.00 0.00 0.00 42 1032.4
20260902150353 17 225 3.2 6.4 0.00 0.00 0.00 43 1032.5
20260902145852 17 188 8.0 9.7 0.00 0.00 0.00 42 1032.3
20260902145348 16 127 4.8 9.7 0.00 0.00 0.00 42 1032.4
20260902144842 16 182 3.2 6.4 0.00 0.00 0.00 44 1032.3
20260902144338 16 189 6.4 9.7 0.00 0.00 0.00 42 1032.4
20260902143833 16 239 1.6 9.7 0.00 0.00 0.00 42 1032.5
20260902143327 16 204 4.8 4.8 0.00 0.00 0.00 41 1032.5
20260902142823 16 233 3.2 6.4 0.00 0.00 0.00 41 1032.7
20260902142320 16 235 4.8 9.7 0.00 0.00 0.00 42 1032.5
20260902141814 16 254 0.0 4.8 0.00 0.00 0.00 43 1032.5
20260902141310 15 200 1.6 6.4 0.00 0.00 0.00 44 1032.3
20260902140809 15 207 3.2 3.2 0.00 0.00 0.00 50 1032.1
20260902140305 15 254 3.2 11.3 0.00 0.00 0.00 44 1032.3
20260902135804 15 248 3.2 6.4 0.00 0.00 0.00 43 1032.1
20260902135300 15 240 0.0 0.0 0.00 0.00 0.00 53 1032.3
20260902134759 15 238 1.6 1.6 0.00 0.00 0.00 51 1032.3
20260902134255 14 258 1.6 12.9 0.00 0.00 0.00 47 1032.5
20260902133750 12 249 0.0 1.6 0.00 0.00 0.00 52 1032.3
20260902133249 12 240 1.6 1.6 0.00 0.00 0.00 53 1032.3
20260902132745 12 236 1.6 3.2 0.00 0.00 0.00 52 1032.1
20260902132240 13 234 1.6 3.2 0.00 0.00 0.00 50 1032.1
20260902131736 13 239 1.6 3.2 0.00 0.00 0.00 48 1032.4
20260902131232 13 206 6.4 6.4 0.00 0.00 0.00 45 1032.0
20260902130731 12 208 4.8 6.4 0.00 0.00 0.00 48 1032.3
20260902130227 12 252 1.6 6.4 0.00 0.00 0.00 46 1032.3
20260902125723 11 239 1.6 3.2 0.00 0.00 0.00 52 1032.3
20260902125219 11 234 1.6 3.2 0.00 0.00 0.00 51 1032.1
20260902124715 10 213 1.6 6.4 0.00 0.00 0.00 51 1032.0
20260902124209 9 205 4.8 6.4 0.00 0.00 0.00 51 1032.0
20260902123704 9 212 4.8 4.8 0.00 0.00 0.00 57 1031.6
20260902123201 10 197 4.8 4.8 0.00 0.00 0.00 53 1031.8
20260902122659 10 202 6.4 6.4 0.00 0.00 0.00 53 1031.9
20260902122156 10 203 6.4 6.4 0.00 0.00 0.00 53 1031.8
20260902121650 10 216 3.2 4.8 0.00 0.00 0.00 54 1031.6
20260902121144 10 212 4.8 4.8 0.00 0.00 0.00 50 1031.5
20260902120641 10 212 3.2 4.8 0.00 0.00 0.00 50 1031.8
20260902120137 10 228 3.2 4.8 0.00 0.00 0.00 51 1031.5
20260902115631 10 218 3.2 4.8 0.00 0.00 0.00 47 1031.9
20260902115127 11 225 4.8 4.8 0.00 0.00 0.00 43 1031.6
20260902114623 11 204 4.8 6.4 0.00 0.00 0.00 46 1031.9
20260902114123 10 189 6.4 9.7 0.00 0.00 0.00 48 1031.6
20260902113613 8 200 6.4 6.4 0.00 0.00 0.00 55 1031.6
20260902113108 9 205 4.8 4.8 0.00 0.00 0.00 57 1031.8
20260902112604 8 204 4.8 6.4 0.00 0.00 0.00 56 1031.6
20260902112100 8 201 4.8 4.8 0.00 0.00 0.00 61 1031.6
20260902111556 9 214 4.8 4.8 0.00 0.00 0.00 60 1031.6
20260902111051 10 209 4.8 4.8 0.00 0.00 0.00 60 1031.6
20260902110547 10 210 4.8 4.8 0.00 0.00 0.00 60 1031.6
20260902110043 9 209 4.8 6.4 0.00 0.00 0.00 61 1031.8
20260902105537 10 258 0.0 1.6 0.00 0.00 0.00 65 1031.8
20260902105032 10 207 4.8 4.8 0.00 0.00 0.00 64 1031.6
20260902104528 10 211 4.8 4.8 0.00 0.00 0.00 63 1031.8
20260902104027 10 234 3.2 4.8 0.00 0.00 0.00 60 1031.8
20260902103522 10 233 3.2 4.8 0.00 0.00 0.00 65 1031.6
20260902103018 10 214 3.2 6.4 0.00 0.00 0.00 66 1031.8
20260902102514 10 204 6.4 6.4 0.00 0.00 0.00 66 1031.8
20260902102011 10 206 4.8 6.4 0.00 0.00 0.00 69 1031.5
20260902101506 10 210 3.2 4.8 0.00 0.00 0.00 71 1031.6
20260902101004 10 218 3.2 4.8 0.00 0.00 0.00 72 1031.8
20260902100459 10 225 3.2 3.2 0.00 0.00 0.00 73 1031.8
20260902095954 10 220 3.2 3.2 0.00 0.00 0.00 74 1031.8
20260902095448 10 208 4.8 4.8 0.00 0.00 0.00 74 1031.9
20260902094948 10 207 4.8 4.8 0.00 0.00 0.00 74 1031.6
20260902094443 10 211 4.8 4.8 0.00 0.00 0.00 74 1031.8
20260902093938 10 204 4.8 4.8 0.00 0.00 0.00 73 1031.8
20260902093433 10 207 4.8 4.8 0.00 0.00 0.00 71 1031.9
20260902092932 10 211 4.8 4.8 0.00 0.00 0.00 71 1031.9
20260902092428 10 207 4.8 4.8 0.00 0.00 0.00 70 1031.9
20260902091928 11 204 4.8 4.8 0.00 0.00 0.00 69 1032.0
20260902091423 11 208 4.8 6.4 0.00 0.00 0.00 69 1031.9
20260902090919 11 208 6.4 6.4 0.00 0.00 0.00 68 1031.8
20260902090414 11 199 4.8 6.4 0.00 0.00 0.00 68 1031.9
20260902085913 11 208 4.8 4.8 0.00 0.00 0.00 69 1032.1
20260902085408 11 218 3.2 4.8 0.00 0.00 0.00 69 1032.0
20260902084903 10 201 3.2 4.8 0.00 0.00 0.00 69 1031.8
20260902084400 10 204 4.8 4.8 0.00 0.00 0.00 70 1032.1
20260902083855 10 203 4.8 4.8 0.00 0.00 0.00 70 1032.0
20260902083355 10 206 4.8 6.4 0.00 0.00 0.00 70 1032.0
20260902082850 10 208 4.8 4.8 0.00 0.00 0.00 71 1031.9
20260902082346 10 205 4.8 4.8 0.00 0.00 0.00 70 1032.0
20260902081843 10 202 4.8 6.4 0.00 0.00 0.00 68 1031.8
20260902081338 10 211 3.2 6.4 0.00 0.00 0.00 68 1031.9
20260902080833 10 204 4.8 4.8 0.00 0.00 0.00 69 1032.1
20260902080330 11 205 4.8 4.8 0.00 0.00 0.00 69 1032.1
20260902075828 11 214 4.8 4.8 0.00 0.00 0.00 68 1032.1
20260902075325 11 206 4.8 4.8 0.00 0.00 0.00 68 1032.5
20260902074820 11 201 6.4 6.4 0.00 0.00 0.00 67 1032.4
20260902074315 11 210 4.8 4.8 0.00 0.00 0.00 66 1032.3
20260902073810 11 202 4.8 6.4 0.00 0.00 0.00 66 1032.0
20260902073306 11 200 4.8 4.8 0.00 0.00 0.00 66 1032.1
20260902072803 11 212 4.8 4.8 0.00 0.00 0.00 66 1032.0
20260902072257 11 207 4.8 4.8 0.00 0.00 0.00 66 1032.0
20260902071754 11 209 4.8 4.8 0.00 0.00 0.00 66 1032.3
20260902071249 11 208 4.8 4.8 0.00 0.00 0.00 66 1032.0
20260902070745 11 206 4.8 6.4 0.00 0.00 0.00 65 1032.3
20260902070245 11 202 6.4 6.4 0.00 0.00 0.00 66 1032.1
20260902065743 11 201 4.8 6.4 0.00 0.00 0.00 66 1032.0
20260902065239 11 208 4.8 4.8 0.00 0.00 0.00 68 1032.0
20260902064734 11 208 4.8 4.8 0.00 0.00 0.00 68 1032.1
20260902064230 11 208 4.8 4.8 0.00 0.00 0.00 67 1032.3
20260902063726 10 213 4.8 4.8 0.00 0.00 0.00 67 1032.0
20260902063226 11 209 4.8 4.8 0.00 0.00 0.00 68 1032.3
20260902062720 11 204 4.8 4.8 0.00 0.00 0.00 68 1032.0
20260902062215 11 206 4.8 4.8 0.00 0.00 0.00 68 1032.4
20260902061714 11 205 4.8 4.8 0.00 0.00 0.00 68 1032.1
20260902061209 11 211 4.8 4.8 0.00 0.00 0.00 67 1032.1
20260902060706 11 208 4.8 4.8 0.00 0.00 0.00 67 1032.3
20260902060202 11 211 4.8 4.8 0.00 0.00 0.00 67 1032.1
20260902055657 11 212 4.8 4.8 0.00 0.13 0.13 67 1032.1
20260902055153 11 212 4.8 4.8 0.00 0.13 0.13 67 1032.3
20260902054648 11 212 4.8 4.8 0.00 0.13 0.13 68 1032.4
20260902054143 11 215 4.8 4.8 0.00 0.13 0.13 69 1032.4
20260902053633 11 207 4.8 4.8 0.00 0.13 0.13 67 1032.4
20260902053132 10 208 4.8 4.8 0.00 0.13 0.13 68 1032.3
20260902052627 10 208 4.8 4.8 0.00 0.13 0.13 70 1032.1
20260902052123 10 206 4.8 4.8 0.00 0.13 0.13 71 1032.1
20260902051622 11 209 4.8 4.8 0.00 0.13 0.13 69 1032.3
20260902051121 11 213 3.2 3.2 0.00 0.13 0.13 70 1032.3
20260902050616 11 209 4.8 4.8 0.00 0.13 0.13 69 1032.4
20260902050111 11 211 4.8 4.8 0.00 0.13 0.13 70 1032.1
20260902045607 11 208 4.8 4.8 0.00 0.13 0.13 69 1032.3
20260902045103 11 211 4.8 4.8 0.00 0.13 0.13 68 1032.4
20260902044602 11 222 3.2 4.8 0.00 0.13 0.13 69 1032.4
20260902044058 11 205 4.8 4.8 0.00 0.13 0.13 68 1032.4
20260902043548 11 216 3.2 4.8 0.00 0.13 0.13 68 1032.4
20260902043042 11 231 3.2 3.2 0.00 0.13 0.13 67 1032.7
20260902042536 12 224 3.2 3.2 0.00 0.13 0.13 66 1032.5
20260902042031 12 237 1.6 3.2 0.00 0.13 0.13 67 1032.7
20260902041525 12 234 3.2 3.2 0.00 0.13 0.13 67 1032.7
20260902041020 12 252 0.0 1.6 0.00 0.13 0.13 66 1032.7
20260902040514 11 255 0.0 1.6 0.00 0.13 0.13 66 1032.8
20260902040009 11 225 1.6 4.8 0.00 0.13 0.13 68 1032.3
20260902035503 11 215 4.8 4.8 0.00 0.13 0.13 69 1032.3
20260902035002 11 207 3.2 3.2 0.00 0.13 0.13 71 1032.5
20260902034457 11 208 4.8 4.8 0.00 0.13 0.13 71 1032.8
20260902033951 11 206 3.2 4.8 0.00 0.13 0.13 72 1032.5
20260902033450 11 215 3.2 4.8 0.00 0.13 0.13 70 1032.4
20260902032949 11 204 3.2 4.8 0.00 0.13 0.13 70 1032.5
20260902032444 11 212 3.2 4.8 0.00 0.13 0.13 69 1032.5
20260902031938 11 210 4.8 4.8 0.00 0.13 0.13 70 1032.8
20260902031428 11 212 4.8 4.8 0.00 0.13 0.13 68 1032.7
20260902030924 12 230 3.2 3.2 0.00 0.13 0.13 70 1032.4
20260902030419 12 228 3.2 3.2 0.00 0.13 0.13 69 1032.7
20260902025917 12 223 3.2 4.8 0.00 0.13 0.13 68 1032.3
20260902025413 12 216 3.2 4.8 0.00 0.13 0.13 66 1032.5
20260902024908 12 228 3.2 3.2 0.00 0.13 0.13 64 1032.4
20260902024403 12 218 3.2 3.2 0.00 0.13 0.13 66 1032.3
20260902023859 12 218 4.8 4.8 0.00 0.13 0.13 68 1032.1
20260902023354 12 207 4.8 4.8 0.00 0.13 0.13 67 1032.3
20260902022853 12 199 4.8 4.8 0.00 0.13 0.13 67 1032.1
20260902022348 12 210 4.8 4.8 0.00 0.13 0.13 68 1031.9
20260902021844 12 212 3.2 4.8 0.00 0.13 0.13 69 1031.8
20260902021339 12 213 3.2 4.8 0.00 0.13 0.13 68 1031.9
20260902020834 12 217 3.2 3.2 0.00 0.13 0.13 67 1031.8
20260902020331 12 221 3.2 3.2 0.00 0.13 0.13 67 1032.0
20260902015826 12 223 3.2 4.8 0.00 0.13 0.13 67 1031.6
20260902015322 12 212 3.2 4.8 0.00 0.13 0.13 66 1031.8
20260902014817 12 216 3.2 4.8 0.00 0.13 0.13 66 1031.6
20260902014314 12 213 3.2 4.8 0.00 0.13 0.13 67 1031.5
20260902013812 12 208 4.8 4.8 0.00 0.13 0.13 66 1031.8
20260902013308 13 211 4.8 4.8 0.00 0.13 0.13 68 1031.6
20260902012803 13 216 3.2 4.8 0.00 0.13 0.13 67 1031.6
20260902012259 13 220 3.2 3.2 0.00 0.13 0.13 70 1031.6